Location: City of Moscow
(46.7306°N, 116.9989°W)
Time: 14:58:03
(UTC+00:00)

CUBEBUG 2 - Pass Details

Date: 28 April 2026
Orbit: 546 x 628 km, 97.9° (Epoch: 15 May)

Event Time Altitude Azimuth Distance (km) Brightness Sun altitude
Rises 08:58:57 0° 33° (NNE) 2,803 ? -26.9°
Reaches altitude 10° 09:02:19 10° 62° (ENE) 1,877 ? -26.7°
Maximum altitude 09:04:07 13° 89° (E) 1,699 ? -26.6°
Enters shadow 09:04:51 12° 100° (E) 1,724 ? -26.5°
